FW8708 Weather Reports


time (UTC)temp
C
wind
direction
speed
KPH
gust
KPH
rain 1hr
cm
rain 24hr
cm
rain mn
cm
humidity
%
barometer
mb
20260906095516 17 184 0.0 4.8 0.00 0.05 0.00 98 1012.9
20260906095015 17 184 0.0 8.0 0.00 0.05 0.00 98 1013.0
20260906094514 17 184 3.2 8.0 0.00 0.05 0.00 98 1012.9
20260906094014 17 183 1.6 9.7 0.00 0.05 0.00 98 1012.7
20260906093514 17 200 4.8 9.7 0.00 0.05 0.00 98 1012.6
20260906093013 17 268 3.2 6.4 0.00 0.05 0.00 97 1012.6
20260906092513 17 303 4.8 6.4 0.00 0.05 0.00 97 1012.6
20260906092015 17 25 1.6 3.2 0.00 0.05 0.00 97 1012.5
20260906091519 17 25 0.0 3.2 0.00 0.05 0.00 97 1012.5
20260906091012 17 25 1.6 3.2 0.00 0.05 0.00 97 1012.4
20260906090512 17 24 1.6 3.2 0.00 0.05 0.00 97 1012.3
20260906090015 17 25 0.0 3.2 0.00 0.05 0.00 97 1012.3
20260906085510 17 25 0.0 3.2 0.00 0.05 0.00 97 1012.4
20260906085010 17 25 0.0 3.2 0.00 0.05 0.00 97 1012.4
20260906084611 17 25 0.0 3.2 0.00 0.05 0.00 97 1012.3
20260906084009 17 24 0.0 3.2 0.00 0.05 0.00 96 1012.5
20260906083513 17 24 0.0 6.4 0.00 0.05 0.00 96 1012.3
20260906083009 18 24 3.2 8.0 0.00 0.05 0.00 97 1012.3
20260906082509 17 24 4.8 8.0 0.00 0.05 0.00 97 1012.3
20260906082008 17 355 4.8 8.0 0.00 0.05 0.00 97 1012.3
20260906081510 17 339 3.2 8.0 0.00 0.05 0.00 96 1012.4
20260906081007 17 348 3.2 4.8 0.00 0.05 0.00 96 1012.5
20260906080507 17 321 0.0 3.2 0.00 0.05 0.00 95 1012.6
20260906080006 17 236 0.0 0.0 0.00 0.05 0.00 95 1012.6
20260906075505 17 236 0.0 0.0 0.00 0.05 0.00 95 1012.7
20260906075005 18 236 0.0 0.0 0.00 0.05 0.00 95 1012.6
20260906074503 18 236 0.0 0.0 0.00 0.05 0.00 94 1012.5
20260906074002 18 236 0.0 0.0 0.00 0.05 0.00 94 1012.4
20260906073503 18 249 0.0 0.0 0.00 0.05 0.00 94 1012.5
20260906073001 18 249 0.0 0.0 0.00 0.05 0.00 93 1012.4
20260906072501 18 249 0.0 0.0 0.00 0.05 0.00 93 1012.4
20260906072004 18 249 0.0 3.2 0.00 0.05 0.00 94 1012.4
20260906071601 18 249 0.0 8.0 0.00 0.05 0.00 94 1012.4
20260906071100 18 249 3.2 11.3 0.00 0.05 0.00 94 1012.4
20260906070559 19 246 4.8 11.3 0.00 0.05 0.00 93 1012.5
20260906065602 19 242 3.2 8.0 0.00 0.05 0.00 92 1012.3
20260906065100 19 219 3.2 11.3 0.00 0.05 0.00 92 1012.3
20260906064559 20 227 3.2 11.3 0.00 0.05 0.00 92 1012.4
20260906064058 20 238 3.2 8.0 0.00 0.05 0.00 92 1012.6
20260906063600 20 211 3.2 8.0 0.00 0.05 0.00 92 1012.7
20260906063057 20 261 4.8 16.1 0.00 0.05 0.00 92 1012.9
20260906062556 20 250 8.0 16.1 0.00 0.05 0.00 91 1013.0
20260906062056 20 250 8.0 17.7 0.00 0.05 0.00 91 1013.0
20260906061558 20 270 11.3 16.1 0.00 0.05 0.00 91 1013.0
20260906061056 20 302 9.7 16.1 0.00 0.05 0.00 91 1013.1
20260906060554 20 262 9.7 17.7 0.00 0.05 0.00 91 1013.2
20260906060054 20 263 11.3 17.7 0.00 0.05 0.00 91 1013.2
20260906055553 20 271 8.0 14.5 0.00 0.05 0.00 91 1013.3
20260906055053 20 278 8.0 14.5 0.00 0.05 0.00 91 1013.3
20260906054602 20 292 8.0 14.5 0.00 0.05 0.00 92 1013.3
20260906054050 20 284 4.8 14.5 0.00 0.05 0.00 92 1013.4
20260906053548 19 275 6.4 12.9 0.00 0.05 0.00 93 1013.4
20260906053057 19 279 6.4 11.3 0.00 0.05 0.00 94 1013.3
20260906052550 18 304 3.2 8.0 0.00 0.05 0.00 95 1013.3
20260906052048 18 313 1.6 6.4 0.00 0.05 0.00 95 1013.4
20260906051605 18 317 0.0 3.2 0.00 0.05 0.00 94 1013.4
20260906051048 18 317 0.0 4.8 0.00 0.05 0.00 94 1013.4
20260906050548 18 317 1.6 4.8 0.00 0.05 0.00 94 1013.5
20260906050047 18 317 3.2 4.8 0.00 0.05 0.00 94 1013.5
20260906045546 18 321 0.0 1.6 0.00 0.05 0.00 94 1013.6
20260906045048 18 321 0.0 0.0 0.00 0.05 0.00 94 1013.5
20260906044552 18 321 0.0 3.2 0.00 0.05 0.00 94 1013.5
20260906044045 18 321 0.0 4.8 0.00 0.05 0.00 94 1013.4
20260906043546 18 321 1.6 4.8 0.00 0.05 0.00 93 1013.4
20260906043046 18 275 0.0 4.8 0.00 0.05 0.00 93 1013.6
20260906042543 19 275 3.2 4.8 0.00 0.05 0.00 93 1013.4
20260906042045 19 275 0.0 4.8 0.00 0.05 0.00 93 1013.4
20260906041542 19 275 1.6 4.8 0.00 0.05 0.00 93 1013.4
20260906041042 19 275 1.6 3.2 0.00 0.05 0.00 93 1013.3
20260906040540 19 275 0.0 3.2 0.00 0.05 0.00 92 1013.4
20260906040116 19 275 0.0 3.2 0.00 0.05 0.00 92 1013.5
20260906035539 19 275 1.6 6.4 0.00 0.05 0.05 92 1013.6
20260906035039 20 275 3.2 6.4 0.00 0.05 0.05 92 1013.7
20260906034539 20 300 3.2 4.8 0.00 0.05 0.05 91 1013.7
20260906034038 20 300 1.6 6.4 0.00 0.05 0.05 91 1013.6
20260906033538 20 300 3.2 6.4 0.00 0.05 0.05 91 1013.6
20260906033051 20 301 1.6 4.8 0.00 0.05 0.05 91 1013.6
20260906032539 20 301 0.0 4.8 0.00 0.05 0.05 90 1013.4
20260906032038 20 301 0.0 4.8 0.00 0.05 0.05 90 1013.6
20260906031537 20 301 1.6 4.8 0.00 0.05 0.05 89 1013.8
20260906031039 21 355 0.0 0.0 0.00 0.05 0.05 89 1013.8
20260906030537 21 355 0.0 0.0 0.00 0.05 0.05 89 1013.7
20260906030038 21 355 0.0 0.0 0.00 0.05 0.05 89 1013.7
20260906025537 21 355 0.0 3.2 0.00 0.05 0.05 89 1013.9
20260906025037 21 355 0.0 6.4 0.00 0.05 0.05 89 1014.0
20260906024537 21 325 1.6 4.8 0.00 0.05 0.05 89 1013.9
20260906024037 21 326 0.0 4.8 0.00 0.05 0.05 89 1013.9
20260906023538 21 326 1.6 4.8 0.00 0.05 0.05 89 1013.8
20260906023035 21 325 0.0 3.2 0.00 0.05 0.05 89 1013.7
20260906022535 21 326 0.0 6.4 0.00 0.05 0.05 89 1013.6
20260906022035 21 326 1.6 6.4 0.00 0.05 0.05 88 1013.6
20260906021536 21 304 0.0 3.2 0.00 0.05 0.05 88 1013.6
20260906021036 21 304 0.0 3.2 0.00 0.05 0.05 87 1013.6
20260906020537 21 304 0.0 6.4 0.00 0.05 0.05 87 1013.6
20260906020036 21 304 0.0 6.4 0.00 0.05 0.05 88 1013.6
20260906015536 21 309 1.6 6.4 0.00 0.05 0.05 88 1013.6
20260906015034 21 11 0.0 4.8 0.00 0.05 0.05 88 1013.4
20260906014535 21 11 0.0 4.8 0.00 0.05 0.05 88 1013.3
20260906014034 21 11 0.0 6.4 0.00 0.05 0.05 87 1013.3
20260906013534 21 11 1.6 6.4 0.00 0.05 0.05 87 1013.4
20260906013035 21 11 3.2 6.4 0.00 0.05 0.05 87 1013.3
20260906012533 21 11 0.0 6.4 0.00 0.05 0.05 87 1013.3
20260906012033 21 15 1.6 6.4 0.00 0.05 0.05 87 1013.4
20260906011533 21 316 0.0 4.8 0.00 0.05 0.05 86 1013.3
20260906011033 21 315 0.0 3.2 0.00 0.05 0.05 85 1013.4
20260906010535 21 315 0.0 3.2 0.00 0.05 0.05 85 1013.3
20260906010033 22 316 1.6 6.4 0.00 0.05 0.05 84 1013.4
20260906005532 22 316 3.2 6.4 0.00 0.05 0.05 84 1013.3
20260906005033 22 315 0.0 4.8 0.00 0.05 0.05 83 1013.1
20260906004532 22 315 0.0 4.8 0.00 0.05 0.05 82 1013.0
20260906004034 22 315 0.0 6.4 0.00 0.05 0.05 82 1012.8
20260906003535 22 315 3.2 9.7 0.00 0.05 0.05 82 1012.7
20260906003032 22 287 1.6 9.7 0.00 0.05 0.05 82 1012.5
20260906002534 22 265 0.0 9.7 0.00 0.05 0.05 81 1012.5
20260906002033 22 263 4.8 14.5 0.00 0.05 0.05 81 1012.5
20260906001534 22 311 1.6 6.4 0.00 0.05 0.05 81 1012.6
20260906001031 22 312 1.6 6.4 0.00 0.05 0.05 81 1012.6
20260906000531 23 15 1.6 8.0 0.00 0.05 0.05 81 1012.4
20260906000031 23 283 3.2 9.7 0.00 0.05 0.05 80 1012.3
20260905235531 23 282 3.2 12.9 0.00 0.05 0.05 80 1012.3
20260905235030 23 9 3.2 14.5 0.00 0.05 0.05 80 1012.3
20260905234531 23 332 4.8 14.5 0.00 0.05 0.05 80 1012.3
20260905234029 23 340 1.6 12.9 0.00 0.05 0.05 79 1012.2
20260905233530 23 307 6.4 17.7 0.00 0.05 0.05 78 1012.2
20260905233029 23 296 8.0 17.7 0.00 0.05 0.05 78 1012.0
20260905232529 23 283 6.4 17.7 0.00 0.05 0.05 77 1012.1
20260905232029 24 331 9.7 17.7 0.00 0.05 0.05 76 1011.9
20260905231529 24 336 6.4 16.1 0.00 0.05 0.05 75 1012.0
20260905231029 25 339 4.8 12.9 0.00 0.05 0.05 74 1012.1
20260905230528 25 22 4.8 12.9 0.00 0.05 0.05 73 1012.2
20260905230028 25 350 6.4 12.9 0.00 0.05 0.05 73 1012.4
20260905225529 25 342 4.8 17.7 0.00 0.05 0.05 72 1012.3
20260905225028 25 325 8.0 17.7 0.00 0.05 0.05 71 1012.5
20260905224604 25 355 3.2 17.7 0.00 0.05 0.05 71 1012.4
20260905224026 25 345 8.0 17.7 0.00 0.05 0.05 70 1012.5
20260905223526 25 308 8.0 14.5 0.00 0.05 0.05 70 1012.4
20260905223027 25 346 4.8 16.1 0.00 0.05 0.05 69 1012.3
20260905222528 25 333 8.0 16.1 0.00 0.05 0.05 69 1012.6
20260905222027 25 348 6.4 19.3 0.00 0.05 0.05 68 1012.7
20260905221526 26 5 9.7 19.3 0.00 0.05 0.05 67 1012.6
20260905221028 26 321 8.0 16.1 0.00 0.05 0.05 67 1012.5
20260905220526 26 321 9.7 16.1 0.00 0.05 0.05 67 1012.7
20260905220026 26 321 8.0 19.3 0.00 0.05 0.05 67 1012.7
20260905215526 26 340 9.7 17.7 0.00 0.05 0.05 65 1012.8
20260905215025 26 342 8.0 16.1 0.00 0.05 0.05 66 1012.7
20260905214525 26 327 6.4 14.5 0.00 0.05 0.05 66 1012.7
20260905214025 26 305 6.4 12.9 0.00 0.05 0.05 67 1012.6
20260905213525 26 336 4.8 12.9 0.00 0.05 0.05 66 1012.6
20260905213024 26 290 3.2 14.5 0.00 0.05 0.05 66 1012.7
20260905212533 26 315 4.8 17.7 0.00 0.05 0.05 66 1012.6
20260905212024 26 321 6.4 17.7 0.00 0.05 0.05 66 1012.7
20260905211539 26 355 6.4 16.1 0.00 0.05 0.05 67 1012.6
20260905211026 26 279 8.0 16.1 0.00 0.05 0.05 66 1012.5
20260905210524 26 327 6.4 14.5 0.00 0.05 0.05 66 1012.4
20260905210038 26 333 8.0 16.1 0.00 0.05 0.05 67 1012.4
20260905205524 26 316 6.4 16.1 0.00 0.05 0.05 66 1012.3
20260905205023 26 333 6.4 24.1 0.00 0.05 0.05 66 1012.3
20260905204524 26 296 9.7 24.1 0.00 0.05 0.05 66 1012.3
20260905204022 26 307 11.3 20.9 0.00 0.05 0.05 68 1012.3
20260905203521 25 320 8.0 20.9 0.00 0.05 0.05 69 1012.3
20260905203021 26 321 6.4 17.7 0.00 0.05 0.05 72 1012.3
20260905202526 25 315 3.2 12.9 0.00 0.05 0.05 74 1012.3
20260905202021 25 271 9.7 12.9 0.00 0.05 0.05 73 1012.2
20260905201522 25 254 8.0 12.9 0.00 0.05 0.05 72 1012.2
20260905201020 25 265 4.8 12.9 0.00 0.05 0.05 75 1012.2
20260905200526 25 259 8.0 17.7 0.00 0.05 0.05 74 1012.1
20260905200026 25 284 6.4 17.7 0.00 0.05 0.05 71 1012.0
20260905195521 25 312 11.3 17.7 0.00 0.05 0.05 70 1012.0
20260905195023 25 261 11.3 16.1 0.00 0.05 0.05 72 1011.8
20260905194520 25 21 6.4 22.5 0.00 0.05 0.05 73 1011.8
20260905194019 24 303 11.3 16.1 0.00 0.05 0.05 73 1011.8
20260905193520 24 335 6.4 12.9 0.00 0.05 0.05 76 1011.8
20260905193019 23 329 6.4 16.1 0.00 0.05 0.05 78 1011.7
20260905192519 23 239 8.0 16.1 0.00 0.05 0.05 79 1011.7
20260905192018 23 296 3.2 19.3 0.00 0.05 0.05 81 1011.6
20260905191518 23 284 9.7 19.3 0.00 0.05 0.05 79 1011.5
20260905191018 23 274 9.7 19.3 0.00 0.05 0.05 79 1011.5
20260905190518 23 255 9.7 19.3 0.00 0.05 0.05 80 1011.6
20260905190020 23 307 9.7 19.3 0.00 0.05 0.05 78 1011.4
20260905185517 23 292 11.3 19.3 0.00 0.05 0.05 78 1011.5
20260905185016 22 284 6.4 19.3 0.00 0.05 0.05 80 1011.8
20260905184526 22 323 11.3 20.9 0.00 0.05 0.05 80 1012.1
20260905184015 22 297 11.3 20.9 0.00 0.05 0.05 81 1012.2
20260905183515 21 279 9.7 19.3 0.00 0.05 0.05 84 1012.1
20260905183015 21 338 6.4 25.7 0.03 0.05 0.05 85 1012.1
20260905182515 21 351 6.4 25.7 0.03 0.05 0.05 84 1012.2
20260905182016 21 270 14.5 29.0 0.03 0.05 0.05 85 1012.3
20260905181515 20 255 11.3 29.0 0.05 0.05 0.05 88 1012.1
20260905181013 20 225 9.7 22.5 0.05 0.05 0.05 88 1012.2
20260905180518 20 244 9.7 19.3 0.05 0.05 0.05 89 1012.6
20260905180013 20 213 4.8 8.0 0.05 0.05 0.05 86 1011.8
20260905175512 20 323 1.6 6.4 0.05 0.05 0.05 87 1012.5
20260905175010 20 317 3.2 6.4 0.05 0.05 0.05 87 1013.0
20260905174509 20 339 3.2 9.7 0.05 0.05 0.05 87 1013.4
20260905174008 20 296 3.2 6.4 0.05 0.05 0.05 86 1013.6
20260905173507 20 315 3.2 17.7 0.05 0.05 0.05 86 1013.8
20260905173007 20 11 4.8 19.3 0.03 0.03 0.03 86 1014.1
20260905172506 20 334 6.4 27.4 0.03 0.03 0.03 86 1014.4
20260905172009 21 323 11.3 27.4 0.03 0.03 0.03 85 1014.8
20260905171506 21 340 12.9 22.5 0.00 0.00 0.00 86 1014.9
20260905171007 21 11 9.7 22.5 0.00 0.00 0.00 87 1015.1
20260905170505 22 18 12.9 25.7 0.00 0.00 0.00 85 1015.3
20260905170005 22 45 16.1 35.4 0.00 0.00 0.00 79 1015.7
20260905165504 24 305 17.7 46.7 0.00 0.00 0.00 74 1015.9
20260905165004 25 333 20.9 46.7 0.00 0.00 0.00 70 1015.4
20260905164507 26 339 9.7 24.1 0.00 0.00 0.00 77 1014.8
20260905164003 26 306 9.7 20.9 0.00 0.00 0.00 77 1014.9
20260905163503 26 11 9.7 20.9 0.00 0.00 0.00 75 1014.9
20260905163003 27 315 8.0 20.9 0.00 0.00 0.00 75 1014.8
20260905162504 27 355 8.0 30.6 0.00 0.00 0.00 74 1014.8
20260905162003 27 319 17.7 35.4 0.00 0.00 0.00 72 1014.7
20260905161505 27 302 17.7 35.4 0.00 0.00 0.00 72 1014.5
20260905161001 27 319 14.5 22.5 0.00 0.00 0.00 71 1014.1
20260905160502 28 301 12.9 20.9 0.00 0.00 0.00 72 1013.9
20260905160001 28 297 8.0 24.1 0.00 0.00 0.00 73 1014.1
20260905155101 28 355 16.1 25.7 0.00 0.00 0.00 73 1014.2
20260905154611 28 346 11.3 24.1 0.00 0.00 0.00 74 1014.3
20260905154102 28 339 11.3 22.5 0.00 0.00 0.00 74 1014.2
20260905153558 27 305 12.9 22.5 0.00 0.00 0.00 74 1014.3
20260905153058 27 343 11.3 22.5 0.00 0.00 0.00 75 1014.3
20260905152557 27 333 8.0 20.9 0.00 0.00 0.00 77 1014.4
20260905152056 27 321 9.7 22.5 0.00 0.00 0.00 76 1014.4
20260905151556 27 285 12.9 22.5 0.00 0.00 0.00 75 1014.3
20260905151055 27 269 4.8 20.9 0.00 0.00 0.00 76 1014.3
20260905150555 27 11 6.4 20.9 0.00 0.00 0.00 76 1014.2
20260905150101 27 294 11.3 22.5 0.00 0.00 0.00 76 1014.1
20260905145555 27 22 12.9 22.5 0.00 0.00 0.00 75 1014.1
20260905145054 27 328 11.3 19.3 0.00 0.00 0.00 79 1014.1
20260905144553 27 324 9.7 19.3 0.00 0.00 0.00 79 1014.1
20260905144051 26 288 6.4 22.5 0.00 0.00 0.00 79 1014.3
20260905143550 26 11 11.3 22.5 0.00 0.00 0.00 79 1014.3
20260905143050 26 13 6.4 17.7 0.00 0.00 0.00 80 1014.3
20260905142555 26 338 11.3 22.5 0.00 0.00 0.00 79 1014.4
20260905142050 26 344 11.3 22.5 0.00 0.00 0.00 79 1014.4
20260905141550 26 296 11.3 20.9 0.00 0.00 0.00 78 1014.4
20260905141048 26 311 11.3 22.5 0.00 0.00 0.00 80 1014.4
20260905140547 26 299 11.3 22.5 0.00 0.00 0.00 81 1014.4
20260905140045 26 305 9.7 17.7 0.00 0.00 0.00 81 1014.3
20260905135545 26 331 9.7 17.7 0.00 0.00 0.00 81 1014.3
20260905135045 26 297 8.0 16.1 0.00 0.00 0.00 81 1014.2
20260905134542 25 281 6.4 17.7 0.00 0.00 0.00 83 1014.2
20260905134041 25 297 9.7 17.7 0.00 0.00 0.00 81 1014.2
20260905133541 25 327 8.0 14.5 0.00 0.00 0.00 82 1014.3
20260905133041 25 297 6.4 17.7 0.00 0.00 0.00 83 1014.3
20260905132540 25 276 9.7 17.7 0.00 0.00 0.00 82 1014.3
20260905132041 25 300 6.4 17.7 0.00 0.00 0.00 82 1014.3
20260905131538 25 271 4.8 17.7 0.00 0.00 0.00 82 1014.4
20260905131038 25 302 8.0 17.7 0.00 0.00 0.00 82 1014.5
20260905130538 25 288 6.4 20.9 0.00 0.00 0.00 82 1014.7
20260905130037 25 306 8.0 20.9 0.00 0.00 0.00 82 1014.6
20260905125540 25 360 6.4 16.1 0.00 0.00 0.00 81 1014.7
20260905125035 25 297 6.4 14.5 0.00 0.00 0.00 82 1014.7
20260905124535 25 301 4.8 12.9 0.00 0.00 0.00 83 1014.7
20260905124032 25 302 3.2 16.1 0.00 0.00 0.00 82 1014.7
20260905123531 24 302 9.7 16.1 0.00 0.00 0.00 82 1014.6
20260905123030 24 298 6.4 14.5 0.00 0.00 0.00 83 1014.6
20260905122530 23 306 4.8 14.5 0.00 0.00 0.00 84 1014.6
20260905122027 23 311 4.8 12.9 0.00 0.00 0.00 86 1014.7
20260905121526 22 265 3.2 9.7 0.00 0.00 0.00 87 1014.6
20260905121025 22 266 4.8 12.9 0.00 0.00 0.00 87 1014.6
20260905120522 22 265 6.4 17.7 0.00 0.00 0.00 87 1014.5
20260905120022 22 249 9.7 17.7 0.00 0.00 0.00 87 1014.5
20260905115526 22 265 9.7 17.7 0.00 0.00 0.00 87 1014.4
20260905115023 22 263 11.3 17.7 0.00 0.00 0.00 87 1014.4
20260905114521 22 255 11.3 16.1 0.00 0.00 0.00 87 1014.4
20260905114019 21 306 6.4 16.1 0.00 0.00 0.00 88 1014.3
20260905113524 21 283 6.4 16.1 0.00 0.00 0.00 88 1014.3
20260905113018 21 269 8.0 17.7 0.00 0.00 0.00 88 1014.3
20260905112517 21 266 9.7 17.7 0.00 0.00 0.00 88 1014.3
20260905112018 21 245 12.9 17.7 0.00 0.00 0.00 88 1014.3
20260905111519 21 254 9.7 16.1 0.00 0.00 0.00 88 1014.2
20260905111017 21 261 6.4 14.5 0.00 0.00 0.00 88 1014.2
20260905110519 21 259 8.0 14.5 0.00 0.00 0.00 88 1014.2
20260905110016 21 272 9.7 12.9 0.00 0.00 0.00 88 1014.2
20260905105517 21 271 8.0 12.9 0.00 0.00 0.00 88 1014.2
20260905105015 21 269 3.2 9.7 0.00 0.00 0.00 88 1014.0
20260905104514 21 265 4.8 9.7 0.00 0.00 0.00 88 1014.0
20260905104017 21 272 4.8 9.7 0.00 0.00 0.00 89 1014.1
20260905103515 21 265 4.8 11.3 0.00 0.00 0.00 90 1014.0
20260905103014 20 285 4.8 12.9 0.00 0.00 0.00 90 1014.1
20260905102510 20 288 4.8 12.9 0.00 0.00 0.00 91 1014.1
20260905102009 20 268 6.4 12.9 0.00 0.00 0.00 92 1014.0
20260905101509 20 279 6.4 12.9 0.00 0.00 0.00 92 1014.1
20260905101008 20 299 3.2 8.0 0.00 0.00 0.00 92 1014.2
20260905100508 20 275 4.8 9.7 0.00 0.00 0.00 93 1014.2
20260905100008 20 249 4.8 11.3 0.00 0.00 0.00 93 1014.1